Time,TemperatureF,DewpointF,PressureIn,WindDirection,WindDirectionDegrees,WindSpeedMPH,WindSpeedGustMPH,Humidity,HourlyPrecipIn,Conditions,Clouds,dailyrainin,SoftwareType,DateUTC
2013-06-16 00:00:00,67.9,62.5,29.90,SSE,157,0.0,6.0,83,0.00,,SCT033,0.00,VWS V15.00,2013-06-16 04:00:00,
2013-06-16 00:01:00,67.9,62.5,29.90,SSE,155,0.0,6.0,83,0.00,,BKN220,0.00,VWS V14.01,2013-06-16 04:01:00,
2013-06-16 00:02:00,67.9,62.5,29.90,SSE,153,0.0,4.0,83,0.00,,BKN220,0.00,VWS V14.01,2013-06-16 04:02:00,
2013-06-16 00:03:00,67.9,62.5,29.90,SSE,154,0.0,0.0,83,0.00,,BKN220,0.00,VWS V14.01,2013-06-16 04:03:00,
2013-06-16 00:06:00,67.9,62.9,29.90,SSE,160,0.0,7.0,84,0.00,,BKN220,0.00,VWS V14.01,2013-06-16 04:06:00,
2013-06-16 00:08:00,67.9,62.9,29.90,South,176,0.0,4.0,84,0.00,,BKN220,0.00,VWS V14.01,2013-06-16 04:08:00,
2013-06-16 00:13:00,67.9,62.9,29.90,SE,145,0.0,0.0,84,0.00,,OVC160,0.00,VWS V14.01,2013-06-16 04:13:00,
2013-06-16 00:15:00,67.9,62.9,29.90,SSE,153,1.0,9.0,84,0.00,,SCT033,0.00,VWS V15.00,2013-06-16 04:15:00,
2013-06-16 00:18:00,67.8,62.8,29.91,South,172,7.0,8.0,84,0.00,,OVC160,0.00,VWS V14.01,2013-06-16 04:18:00,
2013-06-16 00:23:00,67.8,62.8,29.91,South,187,0.0,7.0,84,0.00,,OVC160,0.00,VWS V14.01,2013-06-16 04:23:00,
2013-06-16 00:28:00,67.8,62.8,29.92,SSW,202,0.0,1.0,84,0.00,,OVC160,0.00,VWS V14.01,2013-06-16 04:28:00,
2013-06-16 00:30:00,67.8,62.8,29.92,SSW,201,0.0,5.0,84,0.00,,SCT033,0.00,VWS V15.00,2013-06-16 04:30:00,
2013-06-16 00:33:00,67.8,63.1,29.92,South,191,5.0,9.0,85,0.00,,OVC160,0.00,VWS V14.01,2013-06-16 04:33:00,
2013-06-16 00:38:00,67.8,63.1,29.92,South,182,0.0,6.0,85,0.00,,OVC160,0.00,VWS V14.01,2013-06-16 04:38:00,
2013-06-16 00:43:00,67.9,63.2,29.92,South,191,0.0,7.0,85,0.04,,OVC160,0.04,VWS V14.01,2013-06-16 04:43:00,
2013-06-16 00:45:00,67.9,63.2,29.92,South,189,0.0,0.0,85,0.04,,SCT033,0.04,VWS V15.00,2013-06-16 04:45:00,
2013-06-16 00:48:00,67.9,63.6,29.92,South,185,0.0,0.0,86,0.06,,OVC160,0.06,VWS V14.01,2013-06-16 04:48:00,
2013-06-16 00:53:00,67.7,63.4,29.92,South,191,0.0,0.0,86,0.06,,OVC160,0.06,VWS V14.01,2013-06-16 04:53:00,
2013-06-16 00:58:00,67.6,63.6,29.92,South,191,0.0,0.0,87,0.10,,OVC160,0.10,VWS V14.01,2013-06-16 04:58:00,
2013-06-16 01:00:00,67.6,63.6,29.91,South,190,0.0,0.0,87,0.11,,SCT033,0.11,VWS V15.00,2013-06-16 05:00:00,
2013-06-16 01:03:00,67.5,63.5,29.91,South,190,0.0,0.0,87,0.12,,OVC160,0.12,VWS V14.01,2013-06-16 05:03:00,
2013-06-16 01:09:00,67.4,63.4,29.90,South,184,0.0,0.0,87,0.14,,OVC160,0.14,VWS V14.01,2013-06-16 05:09:00,
2013-06-16 01:14:00,67.3,63.6,29.88,East,93,0.0,2.0,88,0.18,,-RA,0.18,VWS V14.01,2013-06-16 05:14:00,
2013-06-16 01:15:00,67.3,63.6,29.88,East,93,0.0,0.0,88,0.18,,SCT033,0.18,VWS V15.00,2013-06-16 05:15:00,
2013-06-16 01:19:00,67.2,63.5,29.86,ESE,116,0.0,0.0,88,0.19,,-RA,0.19,VWS V14.01,2013-06-16 05:19:00,
2013-06-16 01:24:00,67.2,63.8,29.85,SE,142,0.0,0.0,89,0.19,,RA,0.19,VWS V14.01,2013-06-16 05:24:00,
2013-06-16 01:29:00,67.1,63.8,29.84,SE,142,0.0,0.0,89,0.19,,RA,0.19,VWS V14.01,2013-06-16 05:29:00,
2013-06-16 01:30:00,67.1,63.8,29.84,SE,126,4.0,6.0,89,0.19,,SCT033,0.19,VWS V15.00,2013-06-16 05:30:00,
2013-06-16 01:34:00,67.0,63.7,29.85,SSE,163,0.0,1.0,89,0.20,,RA,0.20,VWS V14.01,2013-06-16 05:34:00,
2013-06-16 01:39:00,66.9,63.6,29.87,South,172,0.0,0.0,89,0.22,,RA,0.22,VWS V14.01,2013-06-16 05:39:00,
2013-06-16 01:44:00,66.9,63.9,29.88,SSW,197,0.0,0.0,90,0.36,,RA,0.36,VWS V14.01,2013-06-16 05:44:00,
2013-06-16 01:45:00,66.9,63.9,29.87,South,190,0.0,0.0,90,0.37,,SCT033,0.37,VWS V15.00,2013-06-16 05:45:00,
2013-06-16 01:49:00,66.8,63.8,29.88,SSE,167,0.0,0.0,90,0.35,,RA,0.39,VWS V14.01,2013-06-16 05:49:00,
2013-06-16 01:54:00,66.8,63.8,29.87,SE,135,0.0,4.0,90,0.54,,RA,0.58,VWS V14.01,2013-06-16 05:54:00,
2013-06-16 01:59:00,66.7,63.7,29.87,ESE,120,0.0,0.0,90,0.64,,RA,0.68,VWS V14.01,2013-06-16 05:59:00,
2013-06-16 02:00:00,66.7,63.7,29.87,ESE,120,0.0,0.0,90,0.66,,SCT033,0.70,VWS V15.00,2013-06-16 06:00:00,
2013-06-16 02:04:00,66.7,63.7,29.87,ESE,120,0.0,0.0,90,0.75,,,0.86,VWS V14.01,2013-06-16 06:04:00,
2013-06-16 02:09:00,66.6,63.9,29.87,ESE,114,0.0,0.0,91,0.85,,,0.96,VWS V14.01,2013-06-16 06:09:00,
2013-06-16 02:14:00,66.6,63.9,29.85,SE,138,0.0,1.0,91,0.91,,,1.02,VWS V14.01,2013-06-16 06:14:00,
2013-06-16 02:15:00,66.6,63.9,29.85,SE,144,8.0,8.0,91,0.92,,SCT033,1.03,VWS V15.00,2013-06-16 06:15:00,
2013-06-16 02:19:00,66.6,63.9,29.85,SSE,147,0.0,1.0,91,0.87,,,1.05,VWS V14.01,2013-06-16 06:19:00,
2013-06-16 02:24:00,66.5,63.8,29.86,SSW,199,5.0,8.0,91,0.88,,,1.06,VWS V14.01,2013-06-16 06:24:00,
2013-06-16 02:29:00,66.5,63.8,29.85,South,181,5.0,7.0,91,0.88,,,1.06,VWS V14.01,2013-06-16 06:29:00,
2013-06-16 02:30:00,66.5,63.8,29.85,South,182,0.0,7.0,91,0.88,,SCT033,1.06,VWS V15.00,2013-06-16 06:30:00,
2013-06-16 02:34:00,66.5,64.1,29.84,SSW,195,3.0,7.0,92,0.88,,,1.07,VWS V14.01,2013-06-16 06:34:00,
2013-06-16 02:39:00,66.5,64.1,29.83,South,188,0.0,2.0,92,0.88,,,1.07,VWS V14.01,2013-06-16 06:39:00,
2013-06-16 02:44:00,66.5,64.1,29.83,South,186,0.0,0.0,92,0.88,,,1.07,VWS V14.01,2013-06-16 06:44:00,
2013-06-16 02:45:00,66.5,64.1,29.83,South,186,0.0,0.0,92,0.88,,SCT033,1.07,VWS V15.00,2013-06-16 06:45:00,
2013-06-16 02:49:00,66.5,64.1,29.83,SSW,202,1.0,6.0,92,0.70,,,1.07,VWS V14.01,2013-06-16 06:49:00,
2013-06-16 02:54:00,66.5,64.1,29.83,SSW,201,7.0,8.0,92,0.70,,RA,1.07,VWS V14.01,2013-06-16 06:54:00,
2013-06-16 02:59:00,66.5,64.1,29.84,SW,217,0.0,7.0,92,0.70,,RA,1.07,VWS V14.01,2013-06-16 06:59:00,
2013-06-16 03:00:00,66.5,64.1,29.84,SW,227,4.0,7.0,92,0.70,,SCT033,1.07,VWS V15.00,2013-06-16 07:00:00,
2013-06-16 03:04:00,66.5,64.1,29.84,WSW,255,14.0,15.0,92,0.37,,RA,1.07,VWS V14.01,2013-06-16 07:04:00,
2013-06-16 03:09:00,66.4,64.0,29.84,SW,223,0.0,0.0,92,0.38,,RA,1.08,VWS V14.01,2013-06-16 07:09:00,
2013-06-16 03:14:00,66.2,63.8,29.84,South,191,0.0,0.0,92,0.38,,-RA,1.08,VWS V14.01,2013-06-16 07:14:00,
2013-06-16 03:15:00,66.2,63.8,29.84,SW,222,3.0,7.0,92,0.38,,SCT033,1.08,VWS V15.00,2013-06-16 07:15:00,
2013-06-16 03:19:00,66.2,63.8,29.85,WSW,242,5.0,8.0,92,0.05,,-RA,1.08,VWS V14.01,2013-06-16 07:19:00,
2013-06-16 03:24:00,66.0,63.6,29.85,SW,223,4.0,8.0,92,0.05,,-RA,1.08,VWS V14.01,2013-06-16 07:24:00,
2013-06-16 03:29:00,65.8,63.4,29.85,SSW,209,11.0,15.0,92,0.05,,-RA,1.08,VWS V14.01,2013-06-16 07:29:00,
2013-06-16 03:30:00,65.8,63.4,29.85,SW,225,6.0,17.0,92,0.05,,SCT033,1.08,VWS V15.00,2013-06-16 07:30:00,
2013-06-16 03:35:00,65.7,63.3,29.85,SW,234,3.0,15.0,92,0.02,,-RA,1.08,VWS V14.01,2013-06-16 07:35:00,
2013-06-16 03:40:00,65.6,63.2,29.85,SW,218,0.0,0.0,92,0.02,,-RA,1.08,VWS V14.01,2013-06-16 07:40:00,
2013-06-16 03:45:00,65.5,63.1,29.85,SW,236,0.0,7.0,92,0.02,,-RA,1.08,VWS V14.01,2013-06-16 07:45:00,
2013-06-16 03:50:00,65.5,63.1,29.86,SW,224,3.0,9.0,92,0.01,,-RA,1.08,VWS V14.01,2013-06-16 07:50:00,
2013-06-16 03:55:00,65.4,63.3,29.86,SW,236,0.0,4.0,93,0.01,,-RA,1.08,VWS V14.01,2013-06-16 07:55:00,
2013-06-16 04:00:00,65.4,63.3,29.85,SW,224,16.0,16.0,93,0.01,,-RA,1.08,VWS V14.01,2013-06-16 08:00:00,
2013-06-16 04:05:00,65.3,63.2,29.86,WSW,253,0.0,0.0,93,0.01,,BKN120,1.08,VWS V14.01,2013-06-16 08:05:00,
2013-06-16 04:10:00,65.3,63.2,29.85,SW,222,4.0,9.0,93,0.01,,BKN120,1.08,VWS V14.01,2013-06-16 08:10:00,
2013-06-16 04:15:00,65.2,63.1,29.85,SW,226,0.0,0.0,93,0.01,,BKN120,1.08,VWS V14.01,2013-06-16 08:15:00,
2013-06-16 04:20:00,65.2,63.1,29.85,SW,231,10.0,12.0,93,0.00,,BKN120,1.08,VWS V14.01,2013-06-16 08:20:00,
2013-06-16 04:25:00,65.1,63.0,29.85,SW,226,0.0,1.0,93,0.00,,BKN120,1.08,VWS V14.01,2013-06-16 08:25:00,
2013-06-16 04:30:00,65.0,62.9,29.85,WSW,241,19.0,19.0,93,0.00,,BKN120,1.08,VWS V14.01,2013-06-16 08:30:00,
2013-06-16 04:35:00,65.0,62.9,29.85,WSW,239,5.0,8.0,93,0.00,,BKN120,1.08,VWS V14.01,2013-06-16 08:35:00,
2013-06-16 04:40:00,64.9,62.8,29.85,WSW,257,10.0,10.0,93,0.00,,BKN120,1.08,VWS V14.01,2013-06-16 08:40:00,
2013-06-16 04:45:00,64.9,62.8,29.85,WSW,257,0.0,9.0,93,0.00,,BKN120,1.08,VWS V14.01,2013-06-16 08:45:00,
2013-06-16 04:50:00,64.9,62.8,29.85,WSW,247,6.0,13.0,93,0.00,,BKN120,1.08,VWS V14.01,2013-06-16 08:50:00,
2013-06-16 04:55:00,64.8,62.7,29.85,WSW,245,3.0,14.0,93,0.00,,BKN120,1.08,VWS V14.01,2013-06-16 08:55:00,
2013-06-16 05:00:00,64.8,62.7,29.85,WSW,257,7.0,13.0,93,0.00,,BKN120,1.08,VWS V14.01,2013-06-16 09:00:00,
2013-06-16 05:05:00,64.8,62.7,29.85,WSW,249,14.0,14.0,93,0.00,,OVC010,1.08,VWS V14.01,2013-06-16 09:05:00,
2013-06-16 05:10:00,64.8,62.7,29.85,West,267,11.0,11.0,93,0.00,,OVC010,1.08,VWS V14.01,2013-06-16 09:10:00,
2013-06-16 05:15:00,64.8,62.7,29.85,West,271,8.0,8.0,93,0.00,,OVC010,1.08,VWS V14.01,2013-06-16 09:15:00,
2013-06-16 05:20:00,64.7,62.6,29.85,WSW,252,0.0,0.0,93,0.00,,OVC010,1.08,VWS V14.01,2013-06-16 09:20:00,
2013-06-16 05:25:00,64.6,62.5,29.85,West,264,0.0,0.0,93,0.00,,OVC010,1.08,VWS V14.01,2013-06-16 09:25:00,
2013-06-16 05:30:00,64.6,62.5,29.85,WSW,254,0.0,9.0,93,0.00,,OVC010,1.08,VWS V14.01,2013-06-16 09:30:00,
2013-06-16 05:35:00,64.6,62.5,29.84,West,270,0.0,1.0,93,0.00,,BKN008,1.08,VWS V14.01,2013-06-16 09:35:00,
2013-06-16 05:40:00,64.7,62.6,29.85,West,266,0.0,7.0,93,0.00,,BKN008,1.08,VWS V14.01,2013-06-16 09:40:00,
2013-06-16 05:45:00,64.7,62.6,29.84,WSW,247,6.0,6.0,93,0.00,,BKN008,1.08,VWS V14.01,2013-06-16 09:45:00,
2013-06-16 05:50:00,64.8,62.7,29.84,West,276,9.0,9.0,93,0.00,,BKN008,1.08,VWS V14.01,2013-06-16 09:50:00,
2013-06-16 05:56:00,64.9,62.8,29.84,West,269,12.0,12.0,93,0.00,,BKN008,1.08,VWS V14.01,2013-06-16 09:56:00,
2013-06-16 06:00:00,64.9,62.8,29.85,WSW,253,3.0,7.0,93,0.00,,SCT033,1.08,VWS V15.00,2013-06-16 10:00:00,
2013-06-16 06:01:00,65.0,62.9,29.85,WSW,258,9.0,12.0,93,0.00,,OVC130,1.08,VWS V14.01,2013-06-16 10:01:00,
2013-06-16 06:06:00,65.0,62.9,29.84,West,278,4.0,8.0,93,0.00,,OVC130,1.08,VWS V14.01,2013-06-16 10:06:00,
2013-06-16 06:11:00,65.0,62.9,29.84,WSW,248,0.0,7.0,93,0.00,,OVC130,1.08,VWS V14.01,2013-06-16 10:11:00,
2013-06-16 06:15:00,65.1,63.0,29.85,WNW,282,3.0,13.0,93,0.00,,SCT033,1.08,VWS V15.00,2013-06-16 10:15:00,
2013-06-16 06:16:00,65.1,63.0,29.85,WSW,253,1.0,8.0,93,0.00,,OVC130,1.08,VWS V14.01,2013-06-16 10:16:00,
2013-06-16 06:21:00,65.1,63.0,29.85,West,269,2.0,6.0,93,0.00,,OVC130,1.08,VWS V14.01,2013-06-16 10:21:00,
2013-06-16 06:26:00,65.1,63.0,29.85,WNW,297,4.0,9.0,93,0.00,,OVC130,1.08,VWS V14.01,2013-06-16 10:26:00,
2013-06-16 06:30:00,65.1,63.0,29.85,West,259,4.0,6.0,93,0.00,,SCT033,1.08,VWS V15.00,2013-06-16 10:30:00,
2013-06-16 06:31:00,65.2,63.1,29.85,WSW,237,0.0,6.0,93,0.00,,OVC130,1.08,VWS V14.01,2013-06-16 10:31:00,
2013-06-16 06:36:00,65.1,63.0,29.86,NW,305,10.0,10.0,93,0.00,,OVC130,1.08,VWS V14.01,2013-06-16 10:36:00,
2013-06-16 06:41:00,65.2,63.1,29.86,WNW,302,12.0,12.0,93,0.00,,OVC130,1.08,VWS V14.01,2013-06-16 10:41:00,
2013-06-16 06:45:00,65.1,63.0,29.86,WNW,299,0.0,5.0,93,0.00,,SCT033,1.08,VWS V15.00,2013-06-16 10:45:00,
2013-06-16 06:46:00,65.1,63.0,29.86,WNW,284,8.0,8.0,93,0.00,,OVC130,1.08,VWS V14.01,2013-06-16 10:46:00,
2013-06-16 06:51:00,65.0,62.9,29.86,West,275,4.0,11.0,93,0.00,,OVC130,1.08,VWS V14.01,2013-06-16 10:51:00,
2013-06-16 06:56:00,65.0,62.9,29.87,West,280,0.0,8.0,93,0.00,,OVC130,1.08,VWS V14.01,2013-06-16 10:56:00,
2013-06-16 07:00:00,64.9,62.8,29.87,North,351,0.0,11.0,93,0.00,,SCT033,1.08,VWS V15.00,2013-06-16 11:00:00,
2013-06-16 07:01:00,64.9,62.8,29.87,West,279,10.0,15.0,93,0.00,,OVC006,1.08,VWS V14.01,2013-06-16 11:01:00,
2013-06-16 07:06:00,64.9,62.8,29.87,WNW,283,14.0,18.0,93,0.00,,OVC006,1.08,VWS V14.01,2013-06-16 11:06:00,
2013-06-16 07:11:00,64.8,62.7,29.87,West,272,0.0,6.0,93,0.00,,OVC006,1.08,VWS V14.01,2013-06-16 11:11:00,
2013-06-16 07:15:00,64.7,62.6,29.87,WNW,292,1.0,6.0,93,0.00,,SCT033,1.08,VWS V15.00,2013-06-16 11:15:00,
2013-06-16 07:16:00,64.7,62.6,29.87,West,263,1.0,5.0,93,0.00,,OVC006,1.08,VWS V14.01,2013-06-16 11:16:00,
2013-06-16 07:21:00,64.6,62.5,29.87,WNW,295,3.0,11.0,93,0.00,,OVC006,1.08,VWS V14.01,2013-06-16 11:21:00,
2013-06-16 07:26:00,64.5,62.4,29.88,WNW,293,4.0,6.0,93,0.00,,OVC006,1.08,VWS V14.01,2013-06-16 11:26:00,
2013-06-16 07:30:00,64.5,62.4,29.88,NNW,330,13.0,18.0,93,0.00,,SCT033,1.08,VWS V15.00,2013-06-16 11:30:00,
2013-06-16 07:31:00,64.4,62.3,29.88,WNW,303,12.0,14.0,93,0.00,,OVC006,1.08,VWS V14.01,2013-06-16 11:31:00,
2013-06-16 07:36:00,64.3,62.2,29.88,WNW,290,8.0,12.0,93,0.00,,OVC006,1.08,VWS V14.01,2013-06-16 11:36:00,
2013-06-16 07:41:00,64.2,62.1,29.88,WNW,282,2.0,5.0,93,0.00,,OVC006,1.08,VWS V14.01,2013-06-16 11:41:00,
2013-06-16 07:45:00,64.2,62.1,29.88,WNW,288,0.0,0.0,93,0.00,,SCT033,1.08,VWS V15.00,2013-06-16 11:45:00,
2013-06-16 07:46:00,64.2,62.1,29.88,WNW,290,0.0,0.0,93,0.00,,OVC006,1.08,VWS V14.01,2013-06-16 11:46:00,
2013-06-16 07:51:00,64.2,62.4,29.88,WSW,253,1.0,1.0,94,0.00,,OVC006,1.08,VWS V14.01,2013-06-16 11:51:00,
2013-06-16 07:56:00,64.1,62.3,29.88,WNW,289,0.0,0.0,94,0.00,,OVC006,1.08,VWS V14.01,2013-06-16 11:56:00,
2013-06-16 08:00:00,64.2,62.4,29.88,WNW,295,0.0,0.0,94,0.00,,SCT033,1.08,VWS V15.00,2013-06-16 12:00:00,
2013-06-16 08:02:00,64.2,62.4,29.88,WNW,299,0.0,0.0,94,0.00,,,1.08,VWS V14.01,2013-06-16 12:02:00,
2013-06-16 08:07:00,64.2,62.4,29.88,West,280,2.0,5.0,94,0.00,,,1.08,VWS V14.01,2013-06-16 12:07:00,
2013-06-16 08:12:00,64.3,62.5,29.88,WNW,292,0.0,0.0,94,0.00,,,1.08,VWS V14.01,2013-06-16 12:12:00,
2013-06-16 08:15:00,64.3,62.5,29.88,WNW,292,0.0,0.0,94,0.00,,SCT033,1.08,VWS V15.00,2013-06-16 12:15:00,
2013-06-16 08:17:00,64.4,62.6,29.88,WNW,292,0.0,0.0,94,0.00,,,1.08,VWS V14.01,2013-06-16 12:17:00,
2013-06-16 08:22:00,64.4,62.6,29.88,WNW,284,0.0,0.0,94,0.00,,,1.08,VWS V14.01,2013-06-16 12:22:00,
2013-06-16 08:27:00,64.5,62.7,29.89,West,280,2.0,6.0,94,0.00,,,1.08,VWS V14.01,2013-06-16 12:27:00,
2013-06-16 08:30:00,64.5,62.7,29.89,WNW,301,0.0,0.0,94,0.00,,SCT033,1.08,VWS V15.00,2013-06-16 12:30:00,
2013-06-16 08:32:00,64.5,62.7,29.89,NW,317,0.0,0.0,94,0.00,,,1.08,VWS V14.01,2013-06-16 12:32:00,
2013-06-16 08:37:00,64.5,62.7,29.89,WNW,299,2.0,3.0,94,0.00,,,1.08,VWS V14.01,2013-06-16 12:37:00,
2013-06-16 08:42:00,64.5,62.7,29.90,WNW,292,0.0,0.0,94,0.00,,,1.08,VWS V14.01,2013-06-16 12:42:00,
2013-06-16 08:45:00,64.5,62.7,29.90,NNW,331,4.0,6.0,94,0.00,,SCT033,1.08,VWS V15.00,2013-06-16 12:45:00,
2013-06-16 08:47:00,64.5,62.7,29.89,NNW,333,0.0,0.0,94,0.00,,,1.08,VWS V14.01,2013-06-16 12:47:00,
2013-06-16 08:52:00,64.6,62.8,29.90,West,276,6.0,7.0,94,0.00,,,1.08,VWS V14.01,2013-06-16 12:52:00,
2013-06-16 08:57:00,64.7,62.9,29.90,NW,305,0.0,0.0,94,0.00,,,1.08,VWS V14.01,2013-06-16 12:57:00,
2013-06-16 09:00:00,64.8,63.0,29.90,NW,305,0.0,0.0,94,0.00,,SCT033,1.08,VWS V15.00,2013-06-16 13:00:00,
2013-06-16 09:02:00,64.8,63.0,29.90,WSW,251,4.0,4.0,94,0.00,,,1.08,VWS V14.01,2013-06-16 13:02:00,
2013-06-16 09:07:00,64.9,63.1,29.90,WNW,299,0.0,0.0,94,0.00,,,1.08,VWS V14.01,2013-06-16 13:07:00,
2013-06-16 09:12:00,64.9,63.1,29.90,WNW,299,1.0,9.0,94,0.00,,,1.08,VWS V14.01,2013-06-16 13:12:00,
2013-06-16 09:15:00,65.0,63.2,29.90,WNW,301,0.0,0.0,94,0.00,,SCT033,1.08,VWS V15.00,2013-06-16 13:15:00,
2013-06-16 09:17:00,65.0,63.2,29.90,WNW,303,0.0,0.0,94,0.00,,,1.08,VWS V14.01,2013-06-16 13:17:00,
2013-06-16 09:22:00,65.2,63.4,29.91,NW,309,0.0,0.0,94,0.00,,,1.08,VWS V14.01,2013-06-16 13:22:00,
2013-06-16 09:27:00,65.4,63.6,29.91,NW,314,0.0,0.0,94,0.00,,,1.08,VWS V14.01,2013-06-16 13:27:00,
2013-06-16 09:30:00,65.4,63.6,29.91,NW,314,0.0,0.0,94,0.00,,SCT033,1.08,VWS V15.00,2013-06-16 13:30:00,
2013-06-16 09:32:00,65.5,63.7,29.91,WNW,284,0.0,0.0,94,0.00,,,1.08,VWS V14.01,2013-06-16 13:32:00,
2013-06-16 09:37:00,65.5,63.7,29.91,WNW,296,2.0,5.0,94,0.00,,,1.08,VWS V14.01,2013-06-16 13:37:00,
2013-06-16 09:42:00,65.5,63.7,29.91,West,263,0.0,0.0,94,0.00,,,1.08,VWS V14.01,2013-06-16 13:42:00,
2013-06-16 09:45:00,65.6,63.8,29.91,NW,305,0.0,0.0,94,0.00,,SCT033,1.08,VWS V15.00,2013-06-16 13:45:00,
2013-06-16 09:47:00,65.6,63.5,29.90,West,265,0.0,3.0,93,0.00,,,1.08,VWS V14.01,2013-06-16 13:47:00,
2013-06-16 09:52:00,65.8,63.7,29.90,WNW,299,0.0,0.0,93,0.00,,,1.08,VWS V14.01,2013-06-16 13:52:00,
2013-06-16 09:57:00,66.0,64.2,29.90,NW,315,0.0,0.0,94,0.00,,,1.08,VWS V14.01,2013-06-16 13:57:00,
2013-06-16 10:00:00,66.2,64.4,29.91,WSW,251,3.0,4.0,94,0.00,,SCT033,1.08,VWS V15.00,2013-06-16 14:00:00,
2013-06-16 10:02:00,66.2,64.1,29.91,West,276,4.0,7.0,93,0.00,,OVC010,1.08,VWS V14.01,2013-06-16 14:02:00,
2013-06-16 10:07:00,66.4,64.3,29.90,WSW,258,0.0,0.0,93,0.00,,OVC010,1.08,VWS V14.01,2013-06-16 14:07:00,
2013-06-16 10:12:00,66.4,64.3,29.90,West,270,0.0,0.0,93,0.00,,OVC010,1.08,VWS V14.01,2013-06-16 14:12:00,
2013-06-16 10:15:00,66.5,64.4,29.90,West,267,0.0,0.0,93,0.00,,SCT033,1.08,VWS V15.00,2013-06-16 14:15:00,
2013-06-16 10:18:00,66.7,64.6,29.90,WSW,258,0.0,0.0,93,0.00,,OVC010,1.08,VWS V14.01,2013-06-16 14:18:00,
2013-06-16 10:23:00,67.2,65.1,29.90,WSW,254,0.0,2.0,93,0.00,,OVC010,1.08,VWS V14.01,2013-06-16 14:23:00,
2013-06-16 10:28:00,67.5,65.1,29.90,SW,229,0.0,0.0,92,0.00,,OVC010,1.08,VWS V14.01,2013-06-16 14:28:00,
2013-06-16 10:30:00,67.7,65.3,29.90,WSW,245,0.0,5.0,92,0.00,,SCT033,1.08,VWS V15.00,2013-06-16 14:30:00,
2013-06-16 10:33:00,67.9,65.5,29.90,SW,230,0.0,0.0,92,0.00,,OVC010,1.08,VWS V14.01,2013-06-16 14:33:00,
2013-06-16 10:38:00,67.9,65.2,29.90,WSW,249,5.0,5.0,91,0.00,,OVC010,1.08,VWS V14.01,2013-06-16 14:38:00,
2013-06-16 10:43:00,68.1,65.1,29.90,West,263,0.0,5.0,90,0.00,,OVC010,1.08,VWS V14.01,2013-06-16 14:43:00,
2013-06-16 10:45:00,68.3,65.6,29.90,WSW,249,0.0,0.0,91,0.00,,SCT033,1.08,VWS V15.00,2013-06-16 14:45:00,
2013-06-16 10:48:00,68.5,65.5,29.90,WSW,251,5.0,10.0,90,0.00,,OVC010,1.08,VWS V14.01,2013-06-16 14:48:00,
2013-06-16 10:53:00,68.6,65.2,29.91,WNW,299,0.0,0.0,89,0.00,,OVC010,1.08,VWS V14.01,2013-06-16 14:53:00,
2013-06-16 10:58:00,68.7,65.0,29.91,WSW,251,0.0,0.0,88,0.00,,OVC010,1.08,VWS V14.01,2013-06-16 14:58:00,
2013-06-16 11:00:00,68.7,65.0,29.91,West,266,0.0,7.0,88,0.00,,SCT033,1.08,VWS V15.00,2013-06-16 15:00:00,
2013-06-16 11:03:00,69.1,65.7,29.91,WSW,253,0.0,0.0,89,0.00,,OVC010,1.08,VWS V14.01,2013-06-16 15:03:00,
2013-06-16 11:08:00,69.2,65.2,29.90,WSW,251,0.0,3.0,87,0.00,,OVC010,1.08,VWS V14.01,2013-06-16 15:08:00,
2013-06-16 11:13:00,69.5,65.5,29.90,WNW,284,0.0,0.0,87,0.00,,BKN014,1.08,VWS V14.01,2013-06-16 15:13:00,
2013-06-16 11:15:00,69.9,65.9,29.91,WNW,302,0.0,3.0,87,0.00,,SCT033,1.08,VWS V15.00,2013-06-16 15:15:00,
2013-06-16 11:18:00,70.2,66.2,29.90,WNW,292,0.0,0.0,87,0.00,,BKN014,1.08,VWS V14.01,2013-06-16 15:18:00,
2013-06-16 11:23:00,70.4,65.7,29.91,SSW,213,0.0,0.0,85,0.00,,BKN014,1.08,VWS V14.01,2013-06-16 15:23:00,
2013-06-16 11:28:00,70.6,65.9,29.91,SSW,213,0.0,0.0,85,0.00,,BKN014,1.08,VWS V14.01,2013-06-16 15:28:00,
2013-06-16 11:30:00,70.6,65.9,29.91,SSW,213,0.0,0.0,85,0.00,,SCT033,1.08,VWS V15.00,2013-06-16 15:30:00,
2013-06-16 11:33:00,70.7,66.0,29.91,SW,214,0.0,0.0,85,0.00,,BKN014,1.08,VWS V14.01,2013-06-16 15:33:00,
2013-06-16 11:38:00,70.9,65.8,29.91,WSW,253,0.0,0.0,84,0.00,,BKN014,1.08,VWS V14.01,2013-06-16 15:38:00,
2013-06-16 11:43:00,71.2,66.1,29.91,SSW,213,0.0,0.0,84,0.00,,BKN014,1.08,VWS V14.01,2013-06-16 15:43:00,
2013-06-16 11:45:00,71.3,66.2,29.91,SSW,213,0.0,7.0,84,0.00,,SCT033,1.08,VWS V15.00,2013-06-16 15:45:00,
2013-06-16 11:48:00,71.5,66.4,29.91,SSW,213,0.0,0.0,84,0.00,,BKN014,1.08,VWS V14.01,2013-06-16 15:48:00,
2013-06-16 11:53:00,72.0,66.6,29.91,SSW,199,0.0,0.0,83,0.00,,BKN014,1.08,VWS V14.01,2013-06-16 15:53:00,
2013-06-16 11:58:00,72.5,66.3,29.91,SW,234,0.0,6.0,81,0.00,,BKN014,1.08,VWS V14.01,2013-06-16 15:58:00,
2013-06-16 12:00:00,72.5,66.7,29.91,SW,234,0.0,4.0,82,0.00,,SCT033,1.08,VWS V15.00,2013-06-16 16:00:00,
2013-06-16 12:03:00,72.7,66.2,29.91,WSW,248,0.0,5.0,80,0.00,,BKN023,1.08,VWS V14.01,2013-06-16 16:03:00,
2013-06-16 12:08:00,72.5,66.0,29.91,SW,219,0.0,9.0,80,0.00,,BKN023,1.08,VWS V14.01,2013-06-16 16:08:00,
2013-06-16 12:13:00,72.7,66.5,29.91,SSW,197,2.0,4.0,81,0.00,,BKN023,1.08,VWS V14.01,2013-06-16 16:13:00,
2013-06-16 12:15:00,73.0,66.8,29.91,SSW,192,2.0,4.0,81,0.00,,SCT033,1.08,VWS V15.00,2013-06-16 16:15:00,
2013-06-16 12:18:00,73.5,67.7,29.91,South,176,0.0,6.0,82,0.00,,BKN023,1.08,VWS V14.01,2013-06-16 16:18:00,
2013-06-16 12:23:00,73.6,67.1,29.92,WSW,250,2.0,7.0,80,0.00,,BKN023,1.08,VWS V14.01,2013-06-16 16:23:00,
2013-06-16 12:29:00,73.3,66.0,29.92,SW,218,0.0,7.0,78,0.00,,BKN023,1.08,VWS V14.01,2013-06-16 16:29:00,
2013-06-16 12:30:00,73.2,65.9,29.92,SW,217,0.0,0.0,78,0.00,,SCT033,1.08,VWS V15.00,2013-06-16 16:30:00,
2013-06-16 12:34:00,73.1,65.8,29.92,SW,223,3.0,10.0,78,0.00,,BKN023,1.08,VWS V14.01,2013-06-16 16:34:00,
2013-06-16 12:39:00,73.2,65.9,29.91,SW,230,0.0,0.0,78,0.00,,BKN023,1.08,VWS V14.01,2013-06-16 16:39:00,
2013-06-16 12:44:00,74.1,66.8,29.91,WSW,247,5.0,6.0,78,0.00,,BKN023,1.08,VWS V14.01,2013-06-16 16:44:00,
2013-06-16 12:45:00,74.2,66.5,29.91,WSW,239,3.0,7.0,77,0.00,,SCT033,1.08,VWS V15.00,2013-06-16 16:45:00,
2013-06-16 12:49:00,74.5,66.8,29.91,SW,236,0.0,0.0,77,0.00,,BKN023,1.08,VWS V14.01,2013-06-16 16:49:00,
2013-06-16 12:54:00,75.2,67.1,29.91,SSW,202,0.0,2.0,76,0.00,,BKN023,1.08,VWS V14.01,2013-06-16 16:54:00,
2013-06-16 12:59:00,76.1,68.8,29.91,SSW,203,0.0,9.0,78,0.00,,BKN023,1.08,VWS V14.01,2013-06-16 16:59:00,
2013-06-16 13:00:00,76.1,67.2,29.91,SSW,205,0.0,2.0,74,0.00,,SCT033,1.08,VWS V15.00,2013-06-16 17:00:00,
2013-06-16 13:04:00,76.0,65.9,29.91,SW,229,2.0,9.0,71,0.00,,BKN023,1.08,VWS V14.01,2013-06-16 17:04:00,
2013-06-16 13:09:00,75.9,66.6,29.91,SW,220,0.0,11.0,73,0.00,,BKN023,1.08,VWS V14.01,2013-06-16 17:09:00,
2013-06-16 13:14:00,76.3,67.4,29.91,West,266,8.0,10.0,74,0.00,,BKN027,1.08,VWS V14.01,2013-06-16 17:14:00,
2013-06-16 13:15:00,76.3,67.4,29.91,WSW,251,0.0,8.0,74,0.00,,SCT033,1.08,VWS V15.00,2013-06-16 17:15:00,
2013-06-16 13:19:00,76.7,67.4,29.91,SW,220,0.0,0.0,73,0.00,,BKN027,1.08,VWS V14.01,2013-06-16 17:19:00,
2013-06-16 13:24:00,77.4,67.7,29.91,SW,226,3.0,7.0,72,0.00,,BKN027,1.08,VWS V14.01,2013-06-16 17:24:00,
2013-06-16 13:29:00,77.5,66.9,29.91,SW,235,0.0,4.0,70,0.00,,BKN027,1.08,VWS V14.01,2013-06-16 17:29:00,
2013-06-16 13:30:00,77.5,66.9,29.91,West,260,0.0,5.0,70,0.00,,SCT033,1.08,VWS V15.00,2013-06-16 17:30:00,
2013-06-16 13:34:00,77.5,66.5,29.91,WSW,245,0.0,5.0,69,0.00,,BKN027,1.08,VWS V14.01,2013-06-16 17:34:00,
2013-06-16 13:39:00,77.6,67.9,29.91,WSW,238,0.0,0.0,72,0.00,,BKN027,1.08,VWS V14.01,2013-06-16 17:39:00,
2013-06-16 13:44:00,77.7,67.1,29.90,West,263,6.0,9.0,70,0.00,,BKN027,1.08,VWS V14.01,2013-06-16 17:44:00,
2013-06-16 13:45:00,77.6,66.6,29.91,WNW,295,0.0,7.0,69,0.00,,SCT033,1.08,VWS V15.00,2013-06-16 17:45:00,
2013-06-16 13:49:00,77.4,65.6,29.91,West,265,0.0,0.0,67,0.00,,BKN027,1.08,VWS V14.01,2013-06-16 17:49:00,
2013-06-16 13:54:00,77.4,66.0,29.91,West,273,0.0,0.0,68,0.00,,BKN027,1.08,VWS V14.01,2013-06-16 17:54:00,
2013-06-16 13:59:00,77.3,65.5,29.91,WNW,303,0.0,9.0,67,0.00,,BKN027,1.08,VWS V14.01,2013-06-16 17:59:00,
2013-06-16 14:00:00,77.2,65.8,29.91,WNW,289,0.0,0.0,68,0.00,,SCT033,1.08,VWS V15.00,2013-06-16 18:00:00,
2013-06-16 14:04:00,77.6,66.6,29.91,SSW,199,7.0,7.0,69,0.00,,BKN027,1.08,VWS V14.01,2013-06-16 18:04:00,
2013-06-16 14:09:00,77.9,65.6,29.91,WSW,242,0.0,3.0,66,0.00,,BKN027,1.08,VWS V14.01,2013-06-16 18:09:00,
2013-06-16 14:14:00,77.7,64.1,29.91,WSW,240,4.0,8.0,63,0.00,,BKN200,1.08,VWS V14.01,2013-06-16 18:14:00,
2013-06-16 14:15:00,77.7,64.1,29.91,SW,234,2.0,7.0,63,0.00,,SCT033,1.08,VWS V15.00,2013-06-16 18:15:00,
2013-06-16 14:19:00,77.6,64.5,29.91,WNW,285,5.0,7.0,64,0.00,,BKN200,1.08,VWS V14.01,2013-06-16 18:19:00,
2013-06-16 14:24:00,77.6,64.0,29.91,WSW,238,8.0,15.0,63,0.00,,BKN200,1.08,VWS V14.01,2013-06-16 18:24:00,
2013-06-16 14:29:00,77.6,62.6,29.91,NW,316,3.0,7.0,60,0.00,,BKN200,1.08,VWS V14.01,2013-06-16 18:29:00,
2013-06-16 14:30:00,77.6,62.6,29.91,West,270,1.0,5.0,60,0.00,,SCT033,1.08,VWS V15.00,2013-06-16 18:30:00,
2013-06-16 14:34:00,77.8,63.8,29.91,West,263,2.0,13.0,62,0.00,,BKN200,1.08,VWS V14.01,2013-06-16 18:34:00,
2013-06-16 14:39:00,77.8,62.3,29.91,West,270,4.0,12.0,59,0.00,,BKN200,1.08,VWS V14.01,2013-06-16 18:39:00,
2013-06-16 14:44:00,77.9,62.9,29.92,WSW,252,0.0,6.0,60,0.00,,BKN200,1.08,VWS V14.01,2013-06-16 18:44:00,
2013-06-16 14:45:00,77.9,62.9,29.92,West,266,3.0,4.0,60,0.00,,SCT033,1.08,VWS V15.00,2013-06-16 18:45:00,
2013-06-16 14:49:00,78.1,63.1,29.92,West,259,2.0,6.0,60,0.00,,BKN200,1.08,VWS V14.01,2013-06-16 18:49:00,
2013-06-16 14:55:00,78.0,61.0,29.91,WNW,292,0.0,12.0,56,0.00,,BKN200,1.08,VWS V14.01,2013-06-16 18:55:00,
2013-06-16 15:00:00,78.3,63.8,29.92,WSW,255,5.0,6.0,61,0.00,,BKN200,1.08,VWS V14.01,2013-06-16 19:00:00,
2013-06-16 15:05:00,78.4,64.3,29.92,SSW,206,3.0,8.0,62,0.00,,BKN200,1.08,VWS V14.01,2013-06-16 19:05:00,
2013-06-16 15:10:00,78.8,65.6,29.92,SW,228,0.0,4.0,64,0.00,,BKN200,1.08,VWS V14.01,2013-06-16 19:10:00,
2013-06-16 15:15:00,79.0,64.4,29.92,West,265,2.0,15.0,61,0.00,,SCT200,1.08,VWS V14.01,2013-06-16 19:15:00,
2013-06-16 15:20:00,79.0,63.5,29.92,WSW,250,11.0,14.0,59,0.00,,SCT200,1.08,VWS V14.01,2013-06-16 19:20:00,
2013-06-16 15:25:00,79.0,62.5,29.92,SW,225,1.0,8.0,57,0.00,,SCT200,1.08,VWS V14.01,2013-06-16 19:25:00,
2013-06-16 15:30:00,79.2,63.2,29.92,West,272,12.0,12.0,58,0.00,,SCT200,1.08,VWS V14.01,2013-06-16 19:30:00,
2013-06-16 15:35:00,79.3,62.8,29.92,SW,230,0.0,9.0,57,0.00,,SCT200,1.08,VWS V14.01,2013-06-16 19:35:00,
2013-06-16 15:40:00,79.5,62.5,29.92,SSE,160,6.0,12.0,56,0.00,,SCT200,1.08,VWS V14.01,2013-06-16 19:40:00,
2013-06-16 15:45:00,79.6,63.0,29.92,SW,230,0.0,0.0,57,0.00,,SCT200,1.08,VWS V14.01,2013-06-16 19:45:00,
2013-06-16 15:50:00,79.8,61.7,29.92,West,270,8.0,14.0,54,0.00,,SCT200,1.08,VWS V14.01,2013-06-16 19:50:00,
2013-06-16 15:55:00,79.6,62.5,29.92,NW,325,6.0,11.0,56,0.00,,SCT200,1.08,VWS V14.01,2013-06-16 19:55:00,
2013-06-16 16:00:00,79.7,64.6,29.92,SW,234,8.0,10.0,60,0.00,,SCT200,1.08,VWS V14.01,2013-06-16 20:00:00,
2013-06-16 16:05:00,79.8,65.2,29.92,WSW,250,3.0,13.0,61,0.00,,SCT250,1.08,VWS V14.01,2013-06-16 20:05:00,
2013-06-16 16:10:00,80.0,65.4,29.92,WSW,238,5.0,12.0,61,0.00,,SCT250,1.08,VWS V14.01,2013-06-16 20:10:00,
2013-06-16 16:15:00,79.8,62.7,29.92,WSW,240,2.0,10.0,56,0.00,,SCT250,1.08,VWS V14.01,2013-06-16 20:15:00,
2013-06-16 16:20:00,79.6,64.0,29.92,South,178,10.0,14.0,59,0.00,,SCT250,1.08,VWS V14.01,2013-06-16 20:20:00,
2013-06-16 16:25:00,79.6,64.5,29.92,SSW,211,3.0,8.0,60,0.00,,SCT250,1.08,VWS V14.01,2013-06-16 20:25:00,
2013-06-16 16:30:00,79.2,63.2,29.92,SW,236,4.0,11.0,58,0.00,,SCT033,1.08,VWS V15.00,2013-06-16 20:30:00,
2013-06-16 16:31:00,79.1,63.1,29.92,SW,233,3.0,6.0,58,0.00,,SCT250,1.08,VWS V14.01,2013-06-16 20:31:00,
2013-06-16 16:36:00,79.0,64.9,29.92,WSW,257,0.0,10.0,62,0.00,,SCT250,1.08,VWS V14.01,2013-06-16 20:36:00,
2013-06-16 16:41:00,79.0,64.9,29.93,SW,226,4.0,11.0,62,0.00,,SCT250,1.08,VWS V14.01,2013-06-16 20:41:00,
2013-06-16 16:45:00,78.8,63.8,29.93,WSW,240,3.0,10.0,60,0.00,,SCT033,1.08,VWS V15.00,2013-06-16 20:45:00,
2013-06-16 16:46:00,78.8,63.3,29.92,West,276,0.0,6.0,59,0.00,,SCT250,1.08,VWS V14.01,2013-06-16 20:46:00,
2013-06-16 16:51:00,78.7,64.6,29.92,SW,220,0.0,9.0,62,0.00,,SCT250,1.08,VWS V14.01,2013-06-16 20:51:00,
2013-06-16 16:56:00,78.7,63.7,29.92,WSW,237,13.0,15.0,60,0.00,,SCT250,1.08,VWS V14.01,2013-06-16 20:56:00,
2013-06-16 17:00:00,78.7,64.6,29.92,SSW,209,11.0,12.0,62,0.00,,SCT033,1.08,VWS V15.00,2013-06-16 21:00:00,
2013-06-16 17:01:00,78.7,64.6,29.92,South,190,9.0,12.0,62,0.00,,SCT250,1.08,VWS V14.01,2013-06-16 21:01:00,
2013-06-16 17:06:00,78.9,64.3,29.92,SW,230,12.0,13.0,61,0.00,,SCT250,1.08,VWS V14.01,2013-06-16 21:06:00,
2013-06-16 17:11:00,78.9,62.9,29.92,SW,236,1.0,9.0,58,0.00,,SCT250,1.08,VWS V14.01,2013-06-16 21:11:00,
2013-06-16 17:15:00,79.0,64.4,29.92,West,270,9.0,11.0,61,0.00,,SCT033,1.08,VWS V15.00,2013-06-16 21:15:00,
2013-06-16 17:16:00,79.0,64.4,29.92,WSW,238,2.0,11.0,61,0.00,,SCT250,1.08,VWS V14.01,2013-06-16 21:16:00,
2013-06-16 17:21:00,79.1,63.6,29.92,West,265,6.0,12.0,59,0.00,,SCT250,1.08,VWS V14.01,2013-06-16 21:21:00,
2013-06-16 17:26:00,79.1,64.5,29.92,SW,225,12.0,13.0,61,0.00,,SCT250,1.08,VWS V14.01,2013-06-16 21:26:00,
2013-06-16 17:30:00,79.1,64.5,29.92,SW,230,0.0,5.0,61,0.00,,SCT033,1.08,VWS V15.00,2013-06-16 21:30:00,
2013-06-16 17:31:00,79.2,64.6,29.92,WSW,247,10.0,10.0,61,0.00,,SCT250,1.08,VWS V14.01,2013-06-16 21:31:00,
2013-06-16 17:36:00,79.1,63.1,29.92,West,261,6.0,12.0,58,0.00,,SCT250,1.08,VWS V14.01,2013-06-16 21:36:00,
2013-06-16 17:41:00,79.2,65.1,29.92,SW,231,10.0,13.0,62,0.00,,SCT250,1.08,VWS V14.01,2013-06-16 21:41:00,
2013-06-16 17:45:00,79.1,64.5,29.92,WSW,240,3.0,6.0,61,0.00,,SCT033,1.08,VWS V15.00,2013-06-16 21:45:00,
2013-06-16 17:46:00,79.0,63.9,29.92,West,272,4.0,10.0,60,0.00,,SCT250,1.08,VWS V14.01,2013-06-16 21:46:00,
2013-06-16 17:51:00,78.9,64.3,29.92,SSW,208,5.0,5.0,61,0.00,,SCT250,1.08,VWS V14.01,2013-06-16 21:51:00,
2013-06-16 17:56:00,78.7,64.1,29.92,WSW,239,8.0,9.0,61,0.00,,SCT250,1.08,VWS V14.01,2013-06-16 21:56:00,
2013-06-16 18:00:00,78.4,62.9,29.92,WSW,251,1.0,12.0,59,0.00,,SCT033,1.08,VWS V15.00,2013-06-16 22:00:00,
2013-06-16 18:01:00,78.3,62.8,29.92,WSW,249,4.0,4.0,59,0.00,,SCT250,1.08,VWS V14.01,2013-06-16 22:01:00,
2013-06-16 18:06:00,78.0,62.5,29.92,West,274,6.0,7.0,59,0.00,,SCT250,1.08,VWS V14.01,2013-06-16 22:06:00,
2013-06-16 18:11:00,78.0,63.9,29.92,WSW,240,4.0,11.0,62,0.00,,SCT250,1.08,VWS V14.01,2013-06-16 22:11:00,
2013-06-16 18:15:00,78.0,63.9,29.92,SSW,212,8.0,9.0,62,0.00,,SCT033,1.08,VWS V15.00,2013-06-16 22:15:00,
2013-06-16 18:16:00,78.0,63.9,29.92,WSW,240,7.0,11.0,62,0.00,,SCT250,1.08,VWS V14.01,2013-06-16 22:16:00,
2013-06-16 18:21:00,77.9,62.9,29.92,SW,227,9.0,12.0,60,0.00,,SCT250,1.08,VWS V14.01,2013-06-16 22:21:00,
2013-06-16 18:26:00,77.8,62.8,29.92,SW,235,1.0,4.0,60,0.00,,SCT250,1.08,VWS V14.01,2013-06-16 22:26:00,
2013-06-16 18:30:00,77.8,63.3,29.92,WSW,239,10.0,10.0,61,0.00,,SCT033,1.08,VWS V15.00,2013-06-16 22:30:00,
2013-06-16 18:31:00,77.8,63.3,29.92,West,259,5.0,7.0,61,0.00,,SCT250,1.08,VWS V14.01,2013-06-16 22:31:00,
2013-06-16 18:36:00,77.8,63.3,29.92,SW,232,5.0,6.0,61,0.00,,SCT250,1.08,VWS V14.01,2013-06-16 22:36:00,
2013-06-16 18:41:00,77.7,63.7,29.92,SW,232,0.0,10.0,62,0.00,,SCT250,1.08,VWS V14.01,2013-06-16 22:41:00,
2013-06-16 18:45:00,77.7,63.7,29.92,SW,234,8.0,8.0,62,0.00,,SCT033,1.08,VWS V15.00,2013-06-16 22:45:00,
2013-06-16 18:47:00,77.7,63.2,29.92,WSW,243,10.0,12.0,61,0.00,,SCT250,1.08,VWS V14.01,2013-06-16 22:47:00,
2013-06-16 18:52:00,77.7,63.7,29.92,SSW,212,0.0,8.0,62,0.00,,SCT250,1.08,VWS V14.01,2013-06-16 22:52:00,
2013-06-16 18:57:00,77.7,63.7,29.92,SW,223,6.0,9.0,62,0.00,,SCT250,1.08,VWS V14.01,2013-06-16 22:57:00,
2013-06-16 19:00:00,77.7,63.7,29.92,SW,234,10.0,13.0,62,0.00,,SCT033,1.08,VWS V15.00,2013-06-16 23:00:00,
2013-06-16 19:02:00,77.6,63.1,29.92,SSW,211,1.0,11.0,61,0.00,,SCT250,1.08,VWS V14.01,2013-06-16 23:02:00,
2013-06-16 19:07:00,77.5,63.5,29.92,WSW,238,0.0,4.0,62,0.00,,SCT250,1.08,VWS V14.01,2013-06-16 23:07:00,
2013-06-16 19:12:00,77.5,63.0,29.92,SW,233,2.0,6.0,61,0.00,,SCT250,1.08,VWS V14.01,2013-06-16 23:12:00,
2013-06-16 19:15:00,77.4,62.9,29.92,SW,228,0.0,5.0,61,0.00,,SCT033,1.08,VWS V15.00,2013-06-16 23:15:00,
2013-06-16 19:17:00,77.4,62.9,29.92,WSW,240,2.0,9.0,61,0.00,,SCT250,1.08,VWS V14.01,2013-06-16 23:17:00,
2013-06-16 19:22:00,77.3,61.9,29.91,WSW,239,9.0,9.0,59,0.00,,SCT250,1.08,VWS V14.01,2013-06-16 23:22:00,
2013-06-16 19:27:00,77.1,61.7,29.91,SW,220,4.0,9.0,59,0.00,,SCT250,1.08,VWS V14.01,2013-06-16 23:27:00,
2013-06-16 19:30:00,77.1,62.2,29.91,SW,234,0.0,3.0,60,0.00,,SCT033,1.08,VWS V15.00,2013-06-16 23:30:00,
2013-06-16 19:32:00,77.1,62.2,29.91,SW,228,3.0,6.0,60,0.00,,SCT250,1.08,VWS V14.01,2013-06-16 23:32:00,
2013-06-16 19:37:00,77.0,62.1,29.91,SW,217,4.0,5.0,60,0.00,,SCT250,1.08,VWS V14.01,2013-06-16 23:37:00,
2013-06-16 19:42:00,77.0,62.1,29.92,SW,231,5.0,9.0,60,0.00,,SCT250,1.08,VWS V14.01,2013-06-16 23:42:00,
2013-06-16 19:45:00,77.0,62.1,29.92,WSW,241,3.0,6.0,60,0.00,,SCT033,1.08,VWS V15.00,2013-06-16 23:45:00,
2013-06-16 19:47:00,76.9,62.0,29.92,WSW,241,4.0,6.0,60,0.00,,SCT250,1.08,VWS V14.01,2013-06-16 23:47:00,
2013-06-16 19:52:00,76.9,62.0,29.92,WSW,245,5.0,8.0,60,0.00,,SCT250,1.08,VWS V14.01,2013-06-16 23:52:00,
2013-06-16 19:57:00,76.8,61.4,29.92,SW,220,0.0,0.0,59,0.00,,SCT250,1.08,VWS V14.01,2013-06-16 23:57:00,
2013-06-16 20:00:00,76.8,61.4,29.92,SW,226,5.0,9.0,59,0.00,,SCT033,1.08,VWS V15.00,2013-06-17 00:00:00,
2013-06-16 20:02:00,76.7,61.3,29.92,WSW,238,6.0,6.0,59,0.00,,SCT250,1.08,VWS V14.01,2013-06-17 00:02:00,
2013-06-16 20:07:00,76.7,61.8,29.92,SW,234,0.0,0.0,60,0.00,,SCT250,1.08,VWS V14.01,2013-06-17 00:07:00,
2013-06-16 20:12:00,76.7,62.2,29.92,SW,234,0.0,0.0,61,0.00,,FEW250,1.08,VWS V14.01,2013-06-17 00:12:00,
2013-06-16 20:15:00,76.6,62.2,29.92,SW,234,0.0,0.0,61,0.00,,SCT033,1.08,VWS V15.00,2013-06-17 00:15:00,
2013-06-16 20:17:00,76.5,62.1,29.92,SW,222,9.0,9.0,61,0.00,,FEW250,1.08,VWS V14.01,2013-06-17 00:17:00,
2013-06-16 20:22:00,76.4,61.5,29.92,SSW,208,0.0,0.0,60,0.00,,FEW250,1.08,VWS V14.01,2013-06-17 00:22:00,
2013-06-16 20:27:00,76.2,61.3,29.92,WSW,243,0.0,0.0,60,0.00,,FEW250,1.08,VWS V14.01,2013-06-17 00:27:00,
2013-06-16 20:30:00,76.1,61.2,29.92,WSW,243,0.0,0.0,60,0.00,,SCT033,1.08,VWS V15.00,2013-06-17 00:30:00,
2013-06-16 20:32:00,76.1,61.7,29.92,WSW,243,0.0,0.0,61,0.00,,FEW250,1.08,VWS V14.01,2013-06-17 00:32:00,
2013-06-16 20:37:00,75.9,61.0,29.92,SW,226,0.0,0.0,60,0.00,,FEW250,1.08,VWS V14.01,2013-06-17 00:37:00,
2013-06-16 20:42:00,75.6,60.8,29.92,SW,224,0.0,0.0,60,0.00,,FEW250,1.08,VWS V14.01,2013-06-17 00:42:00,
2013-06-16 20:45:00,75.5,60.7,29.92,SW,224,0.0,0.0,60,0.00,,SCT033,1.08,VWS V15.00,2013-06-17 00:45:00,
2013-06-16 20:48:00,75.4,60.6,29.92,SW,219,0.0,0.0,60,0.00,,FEW250,1.08,VWS V14.01,2013-06-17 00:48:00,
2013-06-16 20:53:00,75.2,59.9,29.92,WSW,244,0.0,0.0,59,0.00,,FEW250,1.08,VWS V14.01,2013-06-17 00:53:00,
2013-06-16 20:58:00,74.8,59.0,29.92,WSW,238,0.0,0.0,58,0.00,,FEW250,1.08,VWS V14.01,2013-06-17 00:58:00,
2013-06-16 21:00:00,74.6,58.9,29.92,WSW,256,0.0,0.0,58,0.00,,SCT033,1.08,VWS V15.00,2013-06-17 01:00:00,
2013-06-16 21:03:00,74.5,58.8,29.92,WSW,255,0.0,0.0,58,0.00,,FEW250,1.08,VWS V14.01,2013-06-17 01:03:00,
2013-06-16 21:08:00,74.2,59.0,29.92,WSW,255,0.0,0.0,59,0.00,,FEW250,1.08,VWS V14.01,2013-06-17 01:08:00,
2013-06-16 21:13:00,73.9,58.7,29.91,WSW,255,0.0,0.0,59,0.00,,SCT250,1.08,VWS V14.01,2013-06-17 01:13:00,
2013-06-16 21:15:00,73.8,58.6,29.92,WSW,255,0.0,0.0,59,0.00,,SCT033,1.08,VWS V15.00,2013-06-17 01:15:00,
2013-06-16 21:18:00,73.7,58.5,29.92,WSW,255,0.0,0.0,59,0.00,,SCT250,1.08,VWS V14.01,2013-06-17 01:18:00,
2013-06-16 21:23:00,73.4,58.7,29.92,WSW,255,0.0,0.0,60,0.00,,SCT250,1.08,VWS V14.01,2013-06-17 01:23:00,
2013-06-16 21:28:00,73.0,58.8,29.92,WSW,255,0.0,0.0,61,0.00,,SCT250,1.08,VWS V14.01,2013-06-17 01:28:00,
2013-06-16 21:30:00,72.7,58.5,29.92,WSW,255,0.0,0.0,61,0.00,,SCT033,1.08,VWS V15.00,2013-06-17 01:30:00,
2013-06-16 21:33:00,72.6,58.4,29.92,WSW,255,0.0,0.0,61,0.00,,SCT250,1.08,VWS V14.01,2013-06-17 01:33:00,
2013-06-16 21:38:00,72.1,58.8,29.92,WSW,255,0.0,0.0,63,0.00,,SCT250,1.08,VWS V14.01,2013-06-17 01:38:00,
2013-06-16 21:43:00,71.5,58.3,29.92,WSW,255,0.0,0.0,63,0.00,,SCT250,1.08,VWS V14.01,2013-06-17 01:43:00,
2013-06-16 21:45:00,71.3,58.5,29.92,WSW,255,0.0,0.0,64,0.00,,SCT033,1.08,VWS V15.00,2013-06-17 01:45:00,
2013-06-16 21:48:00,71.1,58.3,29.92,WSW,255,0.0,0.0,64,0.00,,SCT250,1.08,VWS V14.01,2013-06-17 01:48:00,
2013-06-16 21:53:00,70.6,58.3,29.92,WSW,255,0.0,0.0,65,0.00,,SCT250,1.08,VWS V14.01,2013-06-17 01:53:00,
2013-06-16 21:58:00,70.1,58.2,29.92,WSW,255,0.0,0.0,66,0.00,,SCT250,1.08,VWS V14.01,2013-06-17 01:58:00,
2013-06-16 22:00:00,69.9,58.5,29.92,WSW,255,0.0,0.0,67,0.00,,SCT033,1.08,VWS V15.00,2013-06-17 02:00:00,
2013-06-16 22:03:00,69.5,58.1,29.92,WSW,255,0.0,0.0,67,0.00,,SCT250,1.08,VWS V14.01,2013-06-17 02:03:00,
2013-06-16 22:08:00,69.1,58.1,29.92,WSW,255,0.0,0.0,68,0.00,,SCT250,1.08,VWS V14.01,2013-06-17 02:08:00,
2013-06-16 22:13:00,68.6,58.4,29.92,WSW,255,0.0,0.0,70,0.00,,FEW250,1.08,VWS V14.01,2013-06-17 02:13:00,
2013-06-16 22:15:00,68.4,58.2,29.92,WSW,255,0.0,0.0,70,0.00,,SCT033,1.08,VWS V15.00,2013-06-17 02:15:00,
2013-06-16 22:18:00,68.0,58.3,29.93,WSW,255,0.0,0.0,71,0.00,,FEW250,1.08,VWS V14.01,2013-06-17 02:18:00,
2013-06-16 22:23:00,67.4,58.1,29.92,WSW,255,0.0,0.0,72,0.00,,FEW250,1.08,VWS V14.01,2013-06-17 02:23:00,
2013-06-16 22:28:00,67.0,58.1,29.92,WSW,255,0.0,0.0,73,0.00,,FEW250,1.08,VWS V14.01,2013-06-17 02:28:00,
2013-06-16 22:30:00,66.8,57.9,29.92,WSW,255,0.0,0.0,73,0.00,,SCT033,1.08,VWS V15.00,2013-06-17 02:30:00,
2013-06-16 22:33:00,66.5,57.6,29.92,WSW,255,0.0,0.0,73,0.00,,FEW250,1.08,VWS V14.01,2013-06-17 02:33:00,
2013-06-16 22:38:00,66.1,57.6,29.93,WSW,255,0.0,0.0,74,0.00,,FEW250,1.08,VWS V14.01,2013-06-17 02:38:00,
2013-06-16 22:44:00,65.7,57.6,29.93,WSW,255,0.0,0.0,75,0.00,,FEW250,1.08,VWS V14.01,2013-06-17 02:44:00,
2013-06-16 22:45:00,65.6,57.5,29.93,WSW,255,0.0,0.0,75,0.00,,SCT033,1.08,VWS V15.00,2013-06-17 02:45:00,
2013-06-16 22:49:00,65.3,57.2,29.93,WSW,255,0.0,0.0,75,0.00,,FEW250,1.08,VWS V14.01,2013-06-17 02:49:00,
2013-06-16 22:54:00,65.0,57.3,29.92,WSW,255,0.0,0.0,76,0.00,,FEW250,1.08,VWS V14.01,2013-06-17 02:54:00,
2013-06-16 22:59:00,64.6,56.9,29.92,WSW,255,0.0,0.0,76,0.00,,FEW250,1.08,VWS V14.01,2013-06-17 02:59:00,
2013-06-16 23:00:00,64.6,57.2,29.92,WSW,255,0.0,0.0,77,0.00,,SCT033,1.08,VWS V15.00,2013-06-17 03:00:00,
2013-06-16 23:04:00,64.4,57.0,29.92,WSW,255,0.0,0.0,77,0.00,,FEW250,1.08,VWS V14.01,2013-06-17 03:04:00,
2013-06-16 23:09:00,64.1,56.8,29.92,WSW,255,0.0,0.0,77,0.00,,FEW250,1.08,VWS V14.01,2013-06-17 03:09:00,
2013-06-16 23:14:00,63.8,56.5,29.92,WSW,255,0.0,0.0,77,0.00,,FEW250,1.08,VWS V14.01,2013-06-17 03:14:00,
2013-06-16 23:15:00,63.7,56.7,29.92,WSW,255,0.0,0.0,78,0.00,,SCT033,1.08,VWS V15.00,2013-06-17 03:15:00,
2013-06-16 23:19:00,63.6,56.3,29.92,WSW,255,0.0,0.0,77,0.00,,FEW250,1.08,VWS V14.01,2013-06-17 03:19:00,
2013-06-16 23:24:00,63.4,56.4,29.92,WSW,255,0.0,0.0,78,0.00,,FEW250,1.08,VWS V14.01,2013-06-17 03:24:00,
2013-06-16 23:29:00,63.1,56.1,29.92,WSW,255,0.0,0.0,78,0.00,,FEW250,1.08,VWS V14.01,2013-06-17 03:29:00,
2013-06-16 23:30:00,63.1,56.1,29.92,WSW,255,0.0,0.0,78,0.00,,SCT033,1.08,VWS V15.00,2013-06-17 03:30:00,
2013-06-16 23:34:00,62.9,55.9,29.92,WSW,255,0.0,0.0,78,0.00,,FEW250,1.08,VWS V14.01,2013-06-17 03:34:00,
2013-06-16 23:39:00,62.7,56.1,29.92,WSW,255,0.0,0.0,79,0.00,,FEW250,1.08,VWS V14.01,2013-06-17 03:39:00,
2013-06-16 23:44:00,62.6,56.0,29.92,WSW,255,0.0,0.0,79,0.00,,FEW250,1.08,VWS V14.01,2013-06-17 03:44:00,
2013-06-16 23:45:00,62.6,56.0,29.92,WSW,255,0.0,0.0,79,0.00,,SCT033,1.08,VWS V15.00,2013-06-17 03:45:00,
2013-06-16 23:49:00,62.5,56.2,29.92,WSW,255,0.0,0.0,80,0.00,,FEW250,1.08,VWS V14.01,2013-06-17 03:49:00,
2013-06-16 23:54:00,62.3,56.4,29.92,WSW,255,0.0,0.0,81,0.00,,FEW250,1.08,VWS V14.01,2013-06-17 03:54:00,
2013-06-16 23:59:00,62.2,56.3,29.92,WSW,255,0.0,0.0,81,0.00,,FEW250,1.08,VWS V14.01,2013-06-17 03:59:00,